User: anonymous   Login
Location: Mentone
(34.5413°N, 85.5351°W)
Time: 00:58:54
(UTC-05:00)
Language:

Transit 2A Rocket - Orbit

View from above orbital plane
View from above orbital plane
View from above satellite
View from above satellite

Ground track
Ground track

The orbit data is extracted from the following two-line orbital elements,

1 00047U 60007C   15146.87256727  .00000033  00000-0  32323-4 0  9998
2 00047 066.6670 056.5777 0233548 216.9390 141.5437 14.41623325868611
Epoch (UTC): 26 May 2015 20:56:29
Eccentricity: 0.0233548
inclination: 66.6670°
perigee height: 586 km
apogee height: 919 km
right ascension of ascending node: 56.5777°
argument of perigee: 216.9390°
revolutions per day: 14.41623325
mean anomaly at epoch: 141.5437°
orbit number at epoch: 86861

The dashed part of the orbit path shows where the satellite is in the earth's shadow,  

DLR